Location: Boissi�res
(45.2500°N, 2.3667°E)
Time: 13:45:28
(UTC+00:00)

SPOT 3 Rocket - Pass Details

Date: 03 March 2021
Orbit: 778 x 795 km, 98.7° (Epoch: 23 April)

Event Time Altitude Azimuth Distance (km) Brightness Sun altitude
Exits shadow 20:18:39 55° 7° (N) 951 3.9 -28.2°
Drops below altitude 10° 20:22:47 10° 349° (N) 2,373 6.4 -28.9°
Sets 20:25:08 0° 348° (NNW) 3,308 7.2 -29.2°
